Home   Weather   Hugo   Past weeks
Flag for USA

Past Weather in Hugo, Minnesota, USA — Yesterday and Last 2 Weeks

Now
52 °F

Sprinkles. Cloudy.


Feels Like: 49 °F
Forecast: 71 / 49 °F
Wind: 9 mph from Northeast

Location: Minneapolis / Blaine

Current Time: Apr 21, 2019 at 9:20:10 am

Latest Report: Apr 21, 2019 at 7:45 am


Visibility: 10 mi

Pressure: 29.82 "Hg

Humidity: 62%

Dew Point: 39 °F

Location of HugoLocation

Past Weather in Hugo — Graph

°F

Hugo Temperature Yesterday

Maximum temperature yesterday: 79 °F (at 4:45 pm)
Minimum temperature yesterday: 39 °F (at 6:36 am)
Average temperature yesterday: 56 °F

High & Low Weather Summary for the Past Weeks

 TemperatureHumidityPressure
High79 °F (Apr 20, 4:45 pm)100% (Apr 6, 7:45 am)30.13 "Hg (Apr 6, 7:45 am)
Low25 °F (Apr 14, 3:16 am)21% (Apr 16, 3:45 pm)29.37 "Hg (Apr 12, 4:16 am)
Average43 °F76%29.84 "Hg
* Reported Apr 6 7:45 am — Apr 21 7:45 am, Hugo. Weather by CustomWeather, © 2019

Note: Actual official high and low records may vary slightly from our data, if they occured in-between our weather recording intervals... More about our weather records

Advertising

Hugo Weather History for the Previous 24 Hours

Scroll right to see more
 ConditionsComfort  
Time TempWeatherWind HumidityBarometerVisibility
7:45 am
Sun, Apr 21
52 °FSprinkles. Cloudy.9 mph62%29.82 "Hg10 mi
6:57 am52 °FMostly cloudy.12 mph58%29.80 "Hg10 mi
6:35 am52 °FSunny.8 mph62%29.79 "Hg10 mi
6:16 am50 °FClear.8 mph67%29.79 "Hg10 mi
5:56 am52 °FClear.No wind62%29.77 "Hg10 mi
5:35 am52 °FClear.5 mph67%29.76 "Hg10 mi
5:15 am52 °FClear.6 mph72%29.76 "Hg10 mi
4:56 am54 °FClear.5 mph67%29.75 "Hg10 mi
4:35 am54 °FClear.5 mph67%29.74 "Hg10 mi
4:16 am55 °FClear.3 mph63%29.73 "Hg10 mi
3:55 am59 °FClear.3 mph55%29.74 "Hg10 mi
3:35 am57 °FClear.3 mph59%29.74 "Hg10 mi
3:15 am61 °FClear.No wind52%29.73 "Hg10 mi
2:35 am64 °FClear.7 mph43%29.71 "Hg10 mi
2:15 am64 °FClear.8 mph43%29.71 "Hg10 mi
1:55 am63 °FClear.8 mph49%29.71 "Hg10 mi
1:35 am59 °FClear.7 mph55%29.71 "Hg10 mi
12:55 am59 °FClear.7 mph59%29.70 "Hg10 mi
12:35 am59 °FClear.7 mph59%29.70 "Hg10 mi
12:16 am59 °FClear.7 mph59%29.70 "Hg10 mi
11:55 pm
Sat, Apr 20
61 °FClear.6 mph55%29.70 "Hg10 mi
11:35 pm61 °FClear.8 mph55%29.70 "Hg10 mi
11:16 pm61 °FClear.7 mph55%29.70 "Hg10 mi
10:56 pm63 °FClear.6 mph52%29.69 "Hg10 mi
10:36 pm63 °FClear.5 mph52%29.69 "Hg10 mi
10:15 pm66 °FClear.6 mph43%29.69 "Hg10 mi
9:56 pm64 °FClear.7 mph49%29.69 "Hg10 mi
9:36 pm64 °FClear.6 mph49%29.69 "Hg10 mi
9:15 pm63 °FClear.5 mph52%29.69 "Hg10 mi
8:45 pm66 °FPassing clouds.No wind49%29.68 "Hg10 mi
7:45 pm73 °FScattered clouds.10 mph33%29.67 "Hg10 mi
6:45 pm77 °FScattered clouds.10 mph30%29.67 "Hg10 mi
5:45 pm79 °FScattered clouds.12 mph26%29.68 "Hg10 mi
4:45 pm79 °FScattered clouds.16 mph24%29.68 "Hg10 mi
3:45 pm77 °FPassing clouds.16 mph26%29.70 "Hg10 mi
2:45 pm73 °FSunny.16 mph29%29.72 "Hg10 mi
1:45 pm73 °FSunny.N/A27%29.74 "Hg10 mi
12:50 pm72 °FSunny.17 mph27%29.76 "Hg10 mi
11:45 am68 °FSunny.17 mph26%29.79 "Hg10 mi
10:45 am64 °FMild.17 mph30%29.81 "Hg10 mi
9:45 am61 °FRefreshingly cool.16 mph34%29.82 "Hg10 mi
Weather by CustomWeather, © 2019

See weather overview